This demonstration page uses our WeatherBlox Daily Observations layout. Learn more.

Left ArrowRight Arrow

Hourly Observations for February 22, 2016

Temp ( °F °C ) Dew Point ( °F °C ) Humidity (%) Winds ( mph kmh ) Pressure ( in mb ) Visibility ( mi km ) Precip ( " mm )
12:51 am 00:51 Clear 54 12.2 23 -5 30 30 NNW 6 9 29.87 1011 10 16.0934 N/A
1:51 am 01:51 Clear 48 8.9 22 -5.6 36 36 SSE 5 7 29.87 1012 10 16.0934 N/A
2:51 am 02:51 Clear 47 8.3 22 -5.6 37 37 E 8 13 29.85 1011 10 16.0934 N/A
3:51 am 03:51 Clear 46 7.8 24 -4.4 42 42 E 8 13 29.83 1010 10 16.0934 N/A
4:51 am 04:51 Clear 43 6.1 24 -4.4 47 47 SE 5 7 29.83 1010 10 16.0934 N/A
5:51 am 05:51 Clear 42 5.6 24 -4.4 49 49 SSE 7 11 29.82 1010 10 16.0934 N/A
6:51 am 06:51 Clear 39 3.9 23 -5 53 53 ESE 5 7 29.84 1011 10 16.0934 N/A
7:51 am 07:51 Sunny 45 7.2 24 -4.4 44 44 E 5 7 29.81 1010 10 16.0934 N/A
8:51 am 08:51 Sunny 54 12.2 27 -2.8 35 35 N N/A 29.83 1010 10 16.0934 N/A
9:51 am 09:51 Sunny 59 15 26 -3.3 28 28 WNW 8 13 29.83 1010 10 16.0934 N/A
10:51 am 10:51 Sunny 65 18.3 25 -3.9 22 22 WNW 9 15 29.79 1009 10 16.0934 N/A
11:51 am 11:51 Sunny 71 21.7 24 -4.4 17 17 NW 18 30 29.75 1008 10 16.0934 N/A
12:51 pm 12:51 Sunny 73 22.8 23 -5 15 15 NW 21 33 29.71 1006 10 16.0934 N/A
1:51 pm 13:51 Sunny 75 23.9 19 -7.2 12 12 W 31 50 29.68 1005 10 16.0934 N/A
2:51 pm 14:51 Sunny 75 23.9 17 -8.3 11 11 W 28 44 29.67 1005 10 16.0934 N/A
3:51 pm 15:51 Sunny 73 22.8 16 -8.9 11 11 W 24 39 29.67 1005 10 16.0934 N/A
4:51 pm 16:51 Sunny 72 22.2 17 -8.3 12 12 W 25 41 29.67 1005 10 16.0934 N/A
5:51 pm 17:51 Sunny 68 20 20 -6.7 16 16 W 18 30 29.7 1006 10 16.0934 N/A
6:51 pm 18:51 Clear 64 17.8 21 -6.1 19 19 WNW 16 26 29.73 1007 10 16.0934 N/A
7:51 pm 19:51 Clear 61 16.1 23 -5 23 23 NW 10 17 29.74 1007 10 16.0934 N/A
8:51 pm 20:51 Clear 62 16.7 23 -5 22 22 NW 17 28 29.75 1007 10 16.0934 N/A
9:51 pm 21:51 Clear 61 16.1 22 -5.6 22 22 WNW 16 26 29.74 1007 10 16.0934 N/A
10:51 pm 22:51 Clear 60 15.6 20 -6.7 21 21 WNW 21 33 29.74 1007 10 16.0934 N/A
11:51 pm 23:51 Clear 59 15 19 -7.2 21 21 NW 18 30 29.74 1007 10 16.0934 N/A

Powered by AerisWeather